Regional Weather Roundup
Issued by NWS Raleigh/Durham, NC

Home | Current Version | Previous Version | Text Only | Print | Product List | Glossary On
Versions: 1 2 3 4 5 6 7 8 9 10 11 12 13 14 15 16 17 18 19 20 21 22 23 24 25 26 27 28 29 30 31 32 33 34 35 36 37 38 39 40 41 42 43 44 45 46 47 48 49 50
000
ASUS42 KRAH 140310
RWRRAH
NORTH CAROLINA WEATHER ROUNDUP
NATIONAL WEATHER SERVICE RALEIGH NC
1000 PM EST SAT FEB 13 2016

NOTE: "FAIR" INDICATES FEW OR NO CLOUDS BELOW 12,000 FEET WITH NO
SIGNIFICANT WEATHER AND/OR OBSTRUCTIONS TO VISIBILITY.

NCZ001-053-055-056-065-067-140400-
WESTERN NORTH CAROLINA

CITY           SKY/WX    TMP DP  RH WIND       PRES   REMARKS
ASHEVILLE      CLOUDY    19   3  49 NW5       30.34S WCI  12
JEFFERSON      CLEAR     12  -4  49 CALM      30.22F
MORGANTON      CLEAR     21   4  47 CALM      30.42S
HICKORY        CLEAR     24   1  36 NW3       30.38R
RUTHERFORDTON  CLOUDY    25   2  38 CALM      30.38S
MOUNT AIRY     CLEAR     20   0  42 CALM      30.42S
BOONE          CLOUDY    13  -2  50 W12G17    30.23F WCI  -1
$$

NCZ021-022-025-041-071-084-088-140400-
CENTRAL NORTH CAROLINA

CITY           SKY/WX    TMP DP  RH WIND       PRES   REMARKS
CHARLOTTE      CLEAR     27   0  31 NE9       30.41R WCI  18
GREENSBORO     CLEAR     21  -4  33 NW10      30.41R WCI  10
WINSTON-SALEM  CLEAR     20  -2  38 N10       30.43S WCI   9
RALEIGH-DURHAM CLEAR     24  -1  33 N6        30.44R WCI  17
FORT BRAGG     CLEAR     27   0  31 N9        30.42R WCI  18
FAYETTEVILLE   CLEAR     28   3  34 N8        30.42R WCI  20
BURLINGTON     CLEAR     22  -1  36 NW8       30.43R WCI  12
LAURINBURG     CLEAR     28   3  34 N10       30.42R WCI  19
$$

NCZ011-015-027-028-043-044-047-080-103-140400-
NORTHEASTERN NORTH CAROLINA

CITY           SKY/WX    TMP DP  RH WIND       PRES   REMARKS
ROCKY MT-WILSO CLEAR     25  -1  32 NW13      30.44R WCI  14
GREENVILLE     CLEAR     28   3  34 N6        30.43R WCI  22
WASHINGTON     CLEAR     25   2  37 N6        30.43R WCI  18
ELIZABETH CITY CLEAR     25   6  44 N12       30.41R WCI  14
MANTEO         CLEAR     28   5  38 N7G16     30.40R WCI  20
CAPE HATTERAS  CLEAR     30   4  33 NW14G23   30.38R WCI  19
$$

NCZ078-087-090-091-093-098-101-140400-
SOUTHEASTERN NORTH CAROLINA

CITY           SKY/WX    TMP DP  RH WIND       PRES   REMARKS
LUMBERTON      CLEAR     30   6  36 N9        30.42R WCI  22
GOLDSBORO      CLEAR     28   0  29 N9        30.42R WCI  20
KINSTON        CLEAR     28   3  34 N9        30.44R WCI  19
KENANSVILLE    CLEAR     27   6  42 CALM      30.44R
NEW BERN       CLEAR     27   5  39 N9        30.43R WCI  18
CHERRY POINT   CLEAR     29   4  34 N18       30.42R WCI  16
BEAUFORT       CLEAR     29   5  36 N10       30.41R WCI  20
JACKSONVILLE   CLEAR     29   6  38 N9        30.42R WCI  20
WILMINGTON     CLEAR     29   7  39 N6        30.41R WCI  23
$$




USA.gov is the U.S. government's official web portal to all federal, state and local government web resources and services.